Change the Weather History Date:

Friday, April 18, 2014

  Actual Average Record
Temperature  
Mean Temperature 56 °F -  
Max Temperature 64 °F 77 °F 78 °F (2012)
Min Temperature 48 °F 50 °F 42 °F (2011)
Degree Days  
Heating Degree Days 9    
Growing Degree Days 6 (Base 50)    
Moisture  
Dew Point 49 °F    
Average Humidity 80    
Maximum Humidity 100    
Minimum Humidity 59    
Precipitation  
Precipitation 0.68 in - - ()
Sea Level Pressure  
Sea Level Pressure 30.28 in    
Wind  
Wind Speed 9 mph (NNE)    
Max Wind Speed 20 mph    
Max Gust Speed 26 mph    
Visibility 7 miles    
Events Rain    
Averages and records for this station are not official NWS values.
T = Trace of Precipitation, MM = Missing Value Source: NWS Daily Summary

Daily Weather History Graph

Daily Weather History Graph

Search for Another Location

Airport or City:

Trip Planner

Search our weather history database for the weather conditions in past years. The results will help you decide how hot, cold, wet, or windy it might be!

Date:

Astronomy

Apr. 18, 2014 Rise Set
Actual Time 6:42 AM EDT 7:49 PM EDT
Civil Twilight 6:16 AM EDT 8:15 PM EDT
Nautical Twilight 5:45 AM EDT 8:46 PM EDT
Astronomical Twilight 5:13 AM EDT 9:18 PM EDT
Moon 11:27 PM EDT (4/18) 9:08 AM EDT (4/18)
Length of Visible Light 13h 59m
Length of Day
13h 07m
Waning Gibbous, 87% of the Moon is Illuminated
Apr 18
Waning Gibbous
Apr 22
Last Quarter
Apr 29
New
May 6
First Quarter
May 14
Full

Hourly Weather History & Observations

Time (EDT) Temp. Dew Point Humidity Pressure Visibility Wind Dir Wind Speed Gust Speed Precip Events Conditions
12:15 AM 53.6 °F 51.8 °F 94% 30.38 in 7.0 mi NE 5.8 mph - N/A   Clear
12:35 AM 51.8 °F 51.8 °F 100% 30.38 in 7.0 mi NE 5.8 mph - N/A   Clear
12:55 AM 51.8 °F 51.8 °F 100% 30.37 in 7.0 mi ENE 5.8 mph - N/A   Clear
1:35 AM 51.8 °F 50.0 °F 94% 30.36 in 7.0 mi NE 6.9 mph - N/A   Clear
1:55 AM 51.8 °F 50.0 °F 94% 30.36 in 7.0 mi NE 6.9 mph - N/A   Clear
2:15 AM 50.0 °F 46.4 °F 87% 30.37 in 7.0 mi NE 8.1 mph - N/A   Clear
2:35 AM 50.0 °F 46.4 °F 87% 30.35 in 7.0 mi NNE 8.1 mph - N/A   Clear
2:55 AM 50.0 °F 44.6 °F 82% 30.35 in 7.0 mi NE 9.2 mph - N/A   Clear
3:15 AM 50.0 °F 44.6 °F 82% 30.35 in 7.0 mi NE 8.1 mph - N/A   Clear
3:35 AM 50.0 °F 44.6 °F 82% 30.35 in 7.0 mi NE 5.8 mph - N/A   Clear
3:55 AM 50.0 °F 44.6 °F 82% 30.35 in 7.0 mi NE 5.8 mph - N/A   Scattered Clouds
4:15 AM 50.0 °F 44.6 °F 82% 30.35 in 7.0 mi NNE 5.8 mph - N/A   Mostly Cloudy
4:55 AM 50.0 °F 44.6 °F 82% 30.33 in 7.0 mi NNE 8.1 mph - N/A   Overcast
5:15 AM 50.0 °F 42.8 °F 76% 30.33 in 7.0 mi NNE 10.4 mph - N/A   Overcast
5:35 AM 50.0 °F 42.8 °F 76% 30.33 in 5.0 mi NNE 10.4 mph - N/A   Haze
5:55 AM 50.0 °F 42.8 °F 76% 30.33 in 7.0 mi NNE 8.1 mph - N/A   Overcast
6:15 AM 50.0 °F 42.8 °F 76% 30.33 in 7.0 mi North 6.9 mph - N/A   Overcast
6:35 AM 48.2 °F 41.0 °F 76% 30.33 in 7.0 mi NNE 8.1 mph - N/A   Overcast
6:55 AM 48.2 °F 41.0 °F 76% 30.34 in 7.0 mi NNE 9.2 mph - N/A   Overcast
7:15 AM 48.2 °F 41.0 °F 76% 30.34 in 5.0 mi NNE 8.1 mph - N/A   Haze
7:35 AM 48.2 °F 41.0 °F 76% 30.35 in 5.0 mi NNE 6.9 mph - N/A   Haze
7:55 AM 50.0 °F 41.0 °F 71% 30.34 in 5.0 mi NNE 9.2 mph - N/A   Haze
8:15 AM 50.0 °F 42.8 °F 76% 30.34 in 5.0 mi NNE 9.2 mph - N/A   Haze
8:35 AM 50.0 °F 42.8 °F 76% 30.35 in 5.0 mi NNE 5.8 mph - N/A   Haze
8:55 AM 50.0 °F 42.8 °F 76% 30.35 in 4.0 mi NNE 9.2 mph - N/A   Haze
9:15 AM 51.8 °F 42.8 °F 71% 30.35 in 5.0 mi NNE 9.2 mph - N/A   Haze
9:35 AM 51.8 °F 42.8 °F 71% 30.35 in 5.0 mi NNE 4.6 mph - N/A   Haze
9:55 AM 51.8 °F 42.8 °F 71% 30.35 in 7.0 mi North 8.1 mph - N/A   Overcast
10:15 AM 53.6 °F 42.8 °F 67% 30.36 in 5.0 mi NNE 8.1 mph - N/A   Haze
10:35 AM 55.4 °F 44.6 °F 67% 30.35 in 5.0 mi North 8.1 mph - N/A   Haze
10:55 AM 57.2 °F 44.6 °F 63% 30.35 in 5.0 mi NNE 10.4 mph - N/A   Haze
11:15 AM 59.0 °F 46.4 °F 63% 30.34 in 5.0 mi NNE 12.7 mph - N/A   Haze
11:35 AM 59.0 °F 46.4 °F 63% 30.34 in 7.0 mi NNE 12.7 mph - N/A   Overcast
11:55 AM 60.8 °F 46.4 °F 59% 30.33 in 5.0 mi NE 13.8 mph 17.3 mph N/A   Haze
12:15 PM 59.0 °F 46.4 °F 63% 30.33 in 7.0 mi NNE 11.5 mph - N/A   Overcast
12:35 PM 59.0 °F 50.0 °F 72% 30.32 in 7.0 mi North 12.7 mph - N/A   Overcast
12:55 PM 57.2 °F 50.0 °F 77% 30.31 in 5.0 mi NNE 12.7 mph 18.4 mph N/A   Haze
1:15 PM 59.0 °F 50.0 °F 72% 30.29 in 5.0 mi NE 15.0 mph 21.9 mph N/A   Haze
1:35 PM 60.8 °F 50.0 °F 68% 30.29 in 5.0 mi NE 11.5 mph 19.6 mph N/A   Haze
1:55 PM 62.6 °F 50.0 °F 63% 30.27 in 5.0 mi NNE 10.4 mph - N/A   Haze
2:15 PM - - N/A% - - North - - N/A   Unknown
2:35 PM - - N/A% - - North - - N/A   Unknown
2:55 PM 64.4 °F 51.8 °F 64% 30.24 in 7.0 mi NNE 15.0 mph 20.7 mph 0.03 in   Overcast
3:15 PM 59.0 °F 53.6 °F 82% 30.23 in 4.0 mi NE 11.5 mph - N/A Rain Light Rain
3:35 PM 60.8 °F 53.6 °F 77% 30.21 in 7.0 mi NNE 10.4 mph 19.6 mph N/A   Mostly Cloudy
3:55 PM 62.6 °F 51.8 °F 68% 30.19 in 7.0 mi NNE 11.5 mph 19.6 mph N/A   Mostly Cloudy
4:15 PM 62.6 °F 51.8 °F 68% 30.19 in 7.0 mi NE 11.5 mph 17.3 mph N/A   Overcast
4:35 PM 62.6 °F 51.8 °F 68% 30.20 in 7.0 mi NE 11.5 mph 18.4 mph N/A   Overcast
4:55 PM 62.6 °F 51.8 °F 68% 30.20 in 7.0 mi NE 12.7 mph - N/A   Overcast
5:15 PM 62.6 °F 51.8 °F 68% 30.18 in 7.0 mi NE 11.5 mph 19.6 mph N/A   Overcast
5:35 PM 60.8 °F 51.8 °F 72% 30.17 in 7.0 mi NNE 12.7 mph - N/A   Overcast
5:55 PM 60.8 °F 51.8 °F 72% 30.17 in 10.0 mi NE 12.7 mph 19.6 mph N/A   Light Drizzle
6:15 PM 59.0 °F 53.6 °F 82% 30.17 in 10.0 mi NE 9.2 mph 17.3 mph N/A Rain Light Rain
6:35 PM 59.0 °F 53.6 °F 82% 30.18 in 10.0 mi NNE 8.1 mph - 0.01 in Rain Rain
6:55 PM 57.2 °F 55.4 °F 94% 30.19 in 5.0 mi NNE 4.6 mph - 0.05 in Rain Heavy Rain
7:15 PM 55.4 °F 55.4 °F 100% 30.21 in 4.0 mi NNE 3.5 mph - 0.05 in Rain Heavy Rain
7:35 PM 55.4 °F 55.4 °F 100% 30.19 in 7.0 mi North 6.9 mph - 0.12 in Rain Heavy Rain
7:55 PM 55.4 °F 55.4 °F 100% 30.19 in 7.0 mi NNE 8.1 mph - 0.15 in Rain Rain
8:15 PM 55.4 °F 55.4 °F 100% 30.18 in 10.0 mi NNE 10.4 mph - 0.01 in Rain Light Rain
8:35 PM 55.4 °F 55.4 °F 100% 30.18 in 7.0 mi NE 10.4 mph - 0.03 in Rain Rain
8:55 PM 55.4 °F 55.4 °F 100% 30.19 in 7.0 mi NNE 9.2 mph 16.1 mph 0.07 in Rain Rain
9:15 PM 55.4 °F 55.4 °F 100% 30.16 in 5.0 mi North 10.4 mph 17.3 mph 0.06 in Rain Rain
9:55 PM 55.4 °F 55.4 °F 100% 30.15 in 10.0 mi NE 19.6 mph 26.5 mph 0.15 in Rain Light Rain
10:15 PM 53.6 °F 53.6 °F 100% 30.13 in 10.0 mi NE 18.4 mph 24.2 mph 0.03 in Rain Light Rain
11:15 PM 53.6 °F 53.6 °F 100% 30.12 in 10.0 mi NE 16.1 mph 21.9 mph 0.05 in Rain Rain
11:35 PM 53.6 °F 53.6 °F 100% 30.12 in 7.0 mi NNE 13.8 mph 23.0 mph 0.12 in Rain Heavy Rain
11:55 PM 53.6 °F 53.6 °F 100% 30.11 in 7.0 mi NE 15.0 mph 19.6 mph 0.20 in Rain Heavy Rain